When you browse on this site, cookies collect data to enhance your experience and personalize the content and advertising you see.
Visit our Privacy Policy to learn more. By continuing to use the site, you agree to this use of cookies and data.
  • In Deutschland
  • Länderverzeichnis
  • Für 7 Tage
  • Wassertemperatur
  • Satellitenkarten
  • Wetterkarte
  • Widgets
  • user-avatar
    Anmelden

    Stündliche Wetter Bangalol

    Heute, 17 Dezember, Montag

    Zeit Temperatur Niederschläge Wind Luftdruck Luftfeuchtigkeit
    00:00 +19°C° 0 mm 2 m/S 699 mmHg 64%
    01:00 +19°C° 0 mm 1 m/S 699 mmHg 64%
    02:00 +19°C° 0 mm 1 m/S 698 mmHg 65%
    03:00 +19°C° 0 mm 1 m/S 698 mmHg 65%
    04:00 +18°C° 0 mm 1 m/S 698 mmHg 66%
    05:00 +18°C° 0 mm 1 m/S 698 mmHg 67%
    06:00 +18°C° 0 mm 2 m/S 699 mmHg 64%
    07:00 +19°C° 0 mm 2 m/S 699 mmHg 62%
    08:00 +20°C° 0 mm 2 m/S 700 mmHg 59%
    09:00 +23°C° 0 mm 2 m/S 700 mmHg 52%
    10:00 +25°C° 0 mm 3 m/S 699 mmHg 46%
    11:00 +27°C° 0 mm 3 m/S 699 mmHg 37%
    12:00 +28°C° 0 mm 4 m/S 699 mmHg 36%
    13:00 +28°C° 0 mm 4 m/S 699 mmHg 35%
    14:00 +29°C° 0 mm 4 m/S 698 mmHg 33%
    15:00 +28°C° 0 mm 3 m/S 698 mmHg 38%
    16:00 +27°C° 0 mm 2 m/S 698 mmHg 42%
    17:00 +26°C° 0 mm 2 m/S 698 mmHg 46%
    18:00 +24°C° 0 mm 2 m/S 698 mmHg 47%
    19:00 +23°C° 0 mm 1 m/S 699 mmHg 47%
    20:00 +22°C° 0 mm 1 m/S 699 mmHg 48%
    21:00 +21°C° 0 mm 1 m/S 699 mmHg 49%
    22:00 +21°C° 0 mm 1 m/S 699 mmHg 50%
    23:00 +20°C° 0 mm 1 m/S 699 mmHg 51%

    Morgen, 18 Dezember, Dienstag

    Zeit Temperatur Niederschläge Wind Luftdruck Luftfeuchtigkeit
    00:00 +20°C° 0 mm 1 m/S 699 mmHg 52%
    01:00 +19°C° 0 mm 1 m/S 699 mmHg 53%
    02:00 +19°C° 0 mm 1 m/S 699 mmHg 55%
    03:00 +18°C° 0 mm 1 m/S 699 mmHg 57%
    04:00 +18°C° 0 mm 1 m/S 699 mmHg 60%
    05:00 +18°C° 0 mm 1 m/S 699 mmHg 63%
    06:00 +18°C° 0 mm 2 m/S 699 mmHg 63%
    07:00 +19°C° 0 mm 2 m/S 700 mmHg 63%
    08:00 +20°C° 0 mm 2 m/S 700 mmHg 63%
    09:00 +23°C° 0 mm 2 m/S 700 mmHg 56%
    10:00 +25°C° 0 mm 2 m/S 700 mmHg 50%
    11:00 +27°C° 0 mm 2 m/S 700 mmHg 43%
    12:00 +28°C° 0 mm 2 m/S 700 mmHg 40%
    13:00 +29°C° 0 mm 2 m/S 699 mmHg 38%
    14:00 +30°C° 0 mm 2 m/S 698 mmHg 35%
    15:00 +29°C° 0 mm 2 m/S 698 mmHg 39%
    16:00 +28°C° 0 mm 2 m/S 698 mmHg 43%
    17:00 +27°C° 0 mm 2 m/S 698 mmHg 47%
    18:00 +25°C° 0 mm 2 m/S 698 mmHg 49%
    19:00 +24°C° 0 mm 2 m/S 699 mmHg 51%
    20:00 +21°C° 0 mm 2 m/S 699 mmHg 54%
    21:00 +21°C° 0 mm 2 m/S 699 mmHg 56%
    22:00 +20°C° 0 mm 2 m/S 699 mmHg 59%
    23:00 +20°C° 0 mm 2 m/S 699 mmHg 62%

    übermorgen, 19 Dezember, Mittwoch

    Zeit Temperatur Niederschläge Wind Luftdruck Luftfeuchtigkeit
    00:00 +19°C° 0 mm 2 m/S 699 mmHg 67%
    01:00 +18°C° 0 mm 2 m/S 698 mmHg 72%
    02:00 +18°C° 0 mm 2 m/S 698 mmHg 78%
    03:00 +17°C° 0 mm 2 m/S 698 mmHg 80%
    04:00 +17°C° 0 mm 2 m/S 698 mmHg 83%
    05:00 +18°C° 0 mm 1 m/S 698 mmHg 86%
    06:00 +19°C° 0 mm 1 m/S 699 mmHg 82%
    07:00 +19°C° 0 mm 2 m/S 700 mmHg 78%
    08:00 +20°C° 0 mm 2 m/S 700 mmHg 74%
    09:00 +23°C° 0 mm 2 m/S 700 mmHg 67%
    10:00 +25°C° 0 mm 1 m/S 700 mmHg 60%
    11:00 +27°C° 0 mm 1 m/S 700 mmHg 52%
    12:00 +28°C° 0 mm 1 m/S 700 mmHg 48%
    13:00 +29°C° 0 mm 1 m/S 699 mmHg 45%
    14:00 +30°C° 0 mm 1 m/S 698 mmHg 41%
    15:00 +29°C° 0 mm 1 m/S 698 mmHg 44%
    16:00 +28°C° 0 mm 1 m/S 698 mmHg 46%
    17:00 +27°C° 0 mm 1 m/S 698 mmHg 49%
    18:00 +26°C° 0 mm 1 m/S 699 mmHg 53%
    19:00 +25°C° 0 mm 2 m/S 699 mmHg 56%
    20:00 +23°C° 0 mm 2 m/S 700 mmHg 60%
    21:00 +23°C° 0 mm 2 m/S 699 mmHg 65%
    22:00 +21°C° 0 mm 3 m/S 699 mmHg 71%
    23:00 +20°C° 0 mm 3 m/S 699 mmHg 77%

    20 Dezember, Donnerstag

    Zeit Temperatur Niederschläge Wind Luftdruck Luftfeuchtigkeit
    00:00 +20°C° 0 mm 3 m/S 699 mmHg 79%
    01:00 +19°C° 0 mm 2 m/S 698 mmHg 82%
    02:00 +19°C° 0 mm 2 m/S 698 mmHg 84%
    03:00 +18°C° 0 mm 2 m/S 698 mmHg 86%
    04:00 +18°C° 0 mm 2 m/S 698 mmHg 87%
    05:00 +18°C° 0 mm 2 m/S 698 mmHg 89%
    06:00 +19°C° 0 mm 2 m/S 699 mmHg 84%
    07:00 +20°C° 0 mm 2 m/S 700 mmHg 80%
    08:00 +21°C° 0 mm 2 m/S 701 mmHg 76%
    09:00 +24°C° 0 mm 2 m/S 701 mmHg 69%
    10:00 +26°C° 0 mm 2 m/S 701 mmHg 61%
    11:00 +27°C° 0 mm 2 m/S 701 mmHg 54%
    12:00 +28°C° 0 mm 2 m/S 700 mmHg 50%
    13:00 +29°C° 0 mm 2 m/S 699 mmHg 46%
    14:00 +30°C° 0 mm 2 m/S 698 mmHg 42%
    15:00 +29°C° 0 mm 2 m/S 698 mmHg 45%
    16:00 +28°C° 0 mm 2 m/S 698 mmHg 49%
    17:00 +28°C° 0 mm 2 m/S 698 mmHg 52%
    18:00 +26°C° 0 mm 2 m/S 698 mmHg 56%
    19:00 +25°C° 0 mm 3 m/S 699 mmHg 60%
    20:00 +24°C° 0 mm 3 m/S 700 mmHg 65%
    21:00 +22°C° 0 mm 3 m/S 699 mmHg 71%
    22:00 +21°C° 0 mm 3 m/S 699 mmHg 77%
    23:00 +20°C° 0 mm 3 m/S 699 mmHg 84%

    21 Dezember, Freitag

    Zeit Temperatur Niederschläge Wind Luftdruck Luftfeuchtigkeit
    00:00 +20°C° 0 mm 2 m/S 699 mmHg 87%
    01:00 +19°C° 0 mm 2 m/S 698 mmHg 90%
    02:00 +19°C° 0 mm 2 m/S 698 mmHg 94%
    03:00 +19°C° 0 mm 2 m/S 698 mmHg 94%
    04:00 +20°C° 0 mm 1 m/S 698 mmHg 95%
    05:00 +19°C° 0 mm 1 m/S 698 mmHg 96%
    06:00 +19°C° 0 mm 2 m/S 699 mmHg 90%
    07:00 +21°C° 0 mm 2 m/S 700 mmHg 85%
    08:00 +23°C° 0 mm 2 m/S 701 mmHg 80%
    09:00 +25°C° 0 mm 2 m/S 701 mmHg 70%
    10:00 +27°C° 0 mm 2 m/S 701 mmHg 61%
    11:00 +28°C° 0 mm 3 m/S 701 mmHg 52%
    12:00 +29°C° 0 mm 3 m/S 700 mmHg 51%
    13:00 +30°C° 0 mm 3 m/S 699 mmHg 50%
    14:00 +30°C° 0 mm 3 m/S 698 mmHg 50%
    15:00 +29°C° 0.3 mm 3 m/S 698 mmHg 56%
    16:00 +28°C° 0.3 mm 3 m/S 698 mmHg 61%
    17:00 +27°C° 0.3 mm 3 m/S 698 mmHg 67%
    18:00 +26°C° 0.7 mm 3 m/S 698 mmHg 73%
    19:00 +25°C° 0.7 mm 3 m/S 699 mmHg 79%
    20:00 +23°C° 0.7 mm 4 m/S 699 mmHg 86%
    21:00 +24°C° 0.2 mm 3 m/S 699 mmHg 87%
    22:00 +22°C° 0.2 mm 3 m/S 699 mmHg 88%
    23:00 +22°C° 0.2 mm 3 m/S 699 mmHg 89%

    22 Dezember, Samstag

    Zeit Temperatur Niederschläge Wind Luftdruck Luftfeuchtigkeit
    00:00 +23°C° 0 mm 2 m/S 699 mmHg 90%
    01:00 +21°C° 0 mm 2 m/S 698 mmHg 90%
    02:00 +21°C° 0 mm 2 m/S 698 mmHg 91%
    03:00 +22°C° 0 mm 1 m/S 698 mmHg 91%
    04:00 +21°C° 0 mm 1 m/S 698 mmHg 91%
    05:00 +21°C° 0 mm 1 m/S 698 mmHg 92%
    06:00 +21°C° 0 mm 2 m/S 699 mmHg 88%
    07:00 +23°C° 0 mm 2 m/S 699 mmHg 84%
    08:00 +24°C° 0 mm 2 m/S 700 mmHg 80%
    09:00 +25°C° 0 mm 3 m/S 700 mmHg 76%
    10:00 +26°C° 0 mm 3 m/S 700 mmHg 71%
    11:00 +28°C° 0 mm 3 m/S 700 mmHg 67%
    12:00 +28°C° 0.5 mm 3 m/S 699 mmHg 65%
    13:00 +28°C° 0.5 mm 3 m/S 698 mmHg 64%
    14:00 +29°C° 0.5 mm 3 m/S 698 mmHg 62%
    15:00 +28°C° 1.1 mm 3 m/S 698 mmHg 67%
    16:00 +27°C° 1.1 mm 3 m/S 698 mmHg 72%
    17:00 +26°C° 1.1 mm 3 m/S 698 mmHg 76%
    18:00 +25°C° 1 mm 3 m/S 698 mmHg 80%
    19:00 +25°C° 1 mm 3 m/S 699 mmHg 84%
    20:00 +24°C° 1 mm 3 m/S 700 mmHg 88%
    21:00 +22°C° 0.2 mm 3 m/S 700 mmHg 90%
    22:00 +22°C° 0.2 mm 3 m/S 700 mmHg 91%
    23:00 +22°C° 0.2 mm 3 m/S 699 mmHg 92%
    Mehr zeigen